Regional Weather Roundup
Issued by NWS State College, PA

Home | Current Version | Previous Version | Text Only | Print | Product List | Glossary Off
Versions: 1 2 3 4 5 6 7 8 9 10 11 12 13 14 15 16 17 18 19 20 21 22 23 24 25 26 27 28 29 30 31 32 33 34 35 36 37 38 39 40 41 42 43 44 45 46 47 48 49 50

000
ASUS41 KCTP 302310
RWRCTP

REGIONAL WEATHER ROUNDUP
NATIONAL WEATHER SERVICE STATE COLLEGE PA
700 PM EDT SAT JUL 30 2016

Note: "fair" indicates few or no clouds below 12,000 feet with no
significant weather and/or obstructions to visibility.

* = STATION THAT DOES NOT REPORT PRECIPITATION /E.G. RAIN...SNOW...ETC/
    THUNDER OR FOG.

PAZ002>004-007>009-013>016-020>023-029>032-310000-
WESTERN PENNSYLVANIA

CITY           SKY/WX    TMP DP  RH WIND       PRES   REMARKS
ERIE           CLOUDY    80  69  69 NE10      29.95S
MEADVILLE      CLOUDY    71  67  87 SE3       29.98R
FRANKLIN*      CLOUDY    73  66  78 CALM      29.99F
NEW CASTLE     LGT RAIN  72  69  90 CALM      29.96F
BEAVER COUNTY  NOT AVBL
BUTLER*        MOSUNNY   75  66  73 E5        29.99S
PITTSBURGH INT PTSUNNY   77  67  71 E3        29.95R
PITTSBURGH     CLOUDY    76  69  79 SE3       29.95S
INDIANA*       PTSUNNY   73  70  88 E7        30.02R
LATROBE        PTSUNNY   72  72 100 SW6       29.98R
WASHINGTON CO* MOSUNNY   77  70  78 E6        29.96F
$$

PAZ004>006-010>012-017>019-024>028-033>037-041-042-045-046-049>053-310000-
CENTRAL PENNSYLVANIA

CITY           SKY/WX    TMP DP  RH WIND       PRES   REMARKS
BRADFORD       CLOUDY    69  64  84 E5        30.04R
DUBOIS         CLOUDY    73  65  75 E8        30.01R
CLEARFIELD     CLOUDY    72  66  81 E7        30.02R
JOHNSTOWN      CLOUDY    71  65  81 SW5       30.03R
ALTOONA        CLOUDY    73  70  90 N5        30.01R
STATE COLLEGE  CLOUDY    70  66  88 NE8       30.00R
WILLIAMSPORT   CLOUDY    73  68  84 E7        29.98R
SELINSGROVE    LGT RAIN  74  73  97 NE3       29.98R
FT INDIANTOWN  PTSUNNY   72  70  94 NE5       29.99R
CAPITAL CITY   CLOUDY    75  71  87 E7        29.96R
HARRISBURG     LGT RAIN  74  73  97 E7        29.95S
YORK           LGT RAIN  74  72  93 SE10      29.95F
$$

PAZ038>040-043-044-047-048-054-055-060>062-067>071-310000-
EASTERN PENNSYLVANIA

CITY           SKY/WX    TMP DP  RH WIND       PRES   REMARKS
SCRANTON       LGT RAIN  69  67  93 E3        30.03S FOG
MOUNT POCONO   LGT RAIN  66  65  96 E7        30.08S
ALLENTOWN      RAIN      73  70  90 E9        30.01S FOG
QUAKERTOWN*    CLOUDY    72  72 100 CALM      30.04R
READING        LGT RAIN  72  70  93 SE8       30.00R FOG
LANCASTER      HVY RAIN  71  71 100 E7        29.99R FOG
COATESVILLE    LGT RAIN  72  72 100 SE6       30.03R
POTTSTOWN      HVY RAIN  73  73 100 CALM      30.04R FOG
BLUE BELL      CLOUDY    72  72 100 CALM      30.01R
DOYLESTOWN     NOT AVBL
WILLOW GROVE   NOT AVBL
NORTH PHILA    LGT RAIN  77  74  90 N6        30.02R
PHILADELPHIA   LGT RAIN  77  72  84 CALM      30.01R
$$




USA.gov is the U.S. government's official web portal to all federal, state and local government web resources and services.